DELTA 1 DEB, 42574

Orbit data source: Space-Track

DELTA 1 DEB, 42574 is space debris in SSO originally from a launch on Tue, 06 Nov 1973 UTC launched from the Air Force Western Test Range (AFWTR). Debris objects in space refer to the collection of defunct objects orbiting the Earth. Examples of debris include non-operational satellites, rocket bodies, and fragments generated from explosions, collisions, or faulty payload assembly.

Loading next visibility...
Identifier
42574, 1973-086HN
Orbit
SSO
Country
Flag of USUS
Related business
Manufacturer
Unknown
Mission
Spacecraft
Bus & Motor
Unknown
Mass
Unknown
Launch date (UTC)
1973-11-06 (52 years ago)
Launch vehicle
Unknown
Launch site
Air Force Western Test Range (AFWTR)
Object type
Payload
Rocket body
Debris
Shape & HBR
Unknown shape, 0.1 m
Radar Cross Section
Small (<0.1 m²)

Expand to show TLE details & history
Last TLE update: 1 week ago

TLE from 1 week ago
0 DELTA 1 DEB
1 42574U 73086HN  25292.80738878  .00000411  00000-0  30789-2 0  9990
2 42574 102.0069 280.3155 0027439 358.2786   1.8184 12.47992635543079
Epoch: 2025-10-19T19:22Z
TLE epoch observation values (Epoch: 2025-10-19T19:22:38.390Z)
Latitude
-0.00001°
Longitude
-38.86321°
Altitude
1,453.927 km
Speed
7.145 km/s
True Right ascension
18h 41m 15s
True Declination
0° 00' 00"
Sunlit
Object was in daylight at epoch
Visualization orbit readout
Latitude
Unknown
Longitude
Unknown
Altitude
Unknown
Speed
Unknown
Apparent Right ascension
Unknown
Apparent Declination
Unknown
Sunlit
N/A
Visualization observer readout
Local Sidereal Time
02:47:31
Azimuth
Unknown
Elevation
Unknown
Doppler factor
Unknown
Orbital elements
Apogee altitude
1,492.003 km
Perigee altitude
1,448.931 km
Semi-major axis
7,848.604 km
Eccentricity
0.00274
Inclination
102.0069°
RAAN
280.3155°
Arg. of periapsis
358.2786°
True anomaly
1.82841°
Mean anomaly
1.8184°
Eccentric anomaly
1.8234°
Mean motion
3.12144 °/min
Orbital period
115.33 mins
BSTAR
0.0030789
Loading maneuver chart data...
Computing Atmospheric mass density...
Loading historical data...
Loading historical data...
Loading historical data...
Loading historical data...
Loading historical data...
Loading historical data...
Loading historical data...

Documentation

Showing up to 5 results
|